Location: Buckland
(65.9785°N, 161.1281°W)
Time: 21:17:18
(UTC+00:00)

SPROUT - Pass Details

Date: 21 January 2021
Orbit: 597 x 610 km, 97.9° (Epoch: 07 March)

Event Time Altitude Azimuth Distance (km) Brightness Sun altitude
Exits shadow 02:50:50 - 21° (NNE) 2,546 ? -6.4°
Reaches altitude 10° 02:52:30 10° 9° (N) 1,979 ? -6.6°
Maximum altitude 02:55:41 21° 321° (NW) 1,407 ? -6.8°
Drops below altitude 10° 02:58:52 10° 274° (W) 1,977 ? -7.1°
Sets 03:01:28 0° 258° (WSW) 2,880 ? -7.3°
